Weather History for Lakeville, MN

Change the Weather History Date:

Saturday, December 15, 2012

  Actual Average Record
Temperature  
Mean Temperature 32 °F -  
Max Temperature 35 °F 26 °F 48 °F (1997)
Min Temperature 30 °F 11 °F -20 °F (1964)
Degree Days  
Heating Degree Days 32    
Moisture  
Dew Point 33 °F    
Average Humidity 97    
Maximum Humidity 100    
Minimum Humidity 81    
Precipitation  
Precipitation 0.31 in - - ()
Sea Level Pressure  
Sea Level Pressure 29.58 in    
Wind  
Wind Speed 7 mph (East)    
Max Wind Speed 12 mph    
Max Gust Speed 16 mph    
Visibility 3 miles    
Events Fog , Rain , Snow    
Averages and records for this station are not official NWS values.
T = Trace of Precipitation, MM = Missing Value Source: NWS Daily Summary

Daily Weather History Graph

Daily Weather History Graph

Search for Another Location

Airport:

Trip Planner

Search our weather history database for the weather conditions in past years. The results will help you decide how hot, cold, wet, or windy it might be!

Date:

Astronomy

Dec. 15, 2012 Rise Set
Actual Time 7:43 AM CST 4:33 PM CST
Civil Twilight 7:09 AM CST 5:06 PM CST
Nautical Twilight 6:32 AM CST 5:43 PM CST
Astronomical Twilight 5:57 AM CST 6:19 PM CST
Moon 9:32 AM CST (12/15) 7:43 PM CST (12/15)
Length of Visible Light 9h 57m
Length of Day
8h 50m
Waxing Crescent, 8% of the Moon is Illuminated
Dec 15
Waxing Crescent
Dec 19
First Quarter
Dec 28
Full
Jan 4
Last Quarter
Jan 11
New

Hourly Weather History & Observations

Time (CST) Temp. Windchill Dew Point Humidity Pressure Visibility Wind Dir Wind Speed Gust Speed Precip Events Conditions
12:12 AM 35.6 °F 28.0 °F 30.2 °F 81% 29.78 in 10.0 mi East 10.4 mph - N/A   Overcast
12:32 AM 35.6 °F 28.0 °F 30.2 °F 81% 29.77 in 10.0 mi ESE 10.4 mph - N/A   Overcast
12:52 AM 35.6 °F 28.6 °F 30.2 °F 81% 29.76 in 10.0 mi East 9.2 mph - N/A   Overcast
1:12 AM 35.6 °F 29.9 °F 30.2 °F 81% 29.75 in 10.0 mi East 6.9 mph - N/A   Overcast
1:32 AM 35.6 °F 28.6 °F 30.2 °F 81% 29.73 in 10.0 mi East 9.2 mph - N/A   Overcast
1:52 AM 35.6 °F 28.0 °F 30.2 °F 81% 29.73 in 5.0 mi ESE 10.4 mph 16.1 mph N/A   Overcast
2:12 AM 35.6 °F 29.9 °F 32.0 °F 87% 29.74 in 7.0 mi ESE 6.9 mph - N/A   Overcast
2:32 AM 33.8 °F 25.3 °F 32.0 °F 93% 29.72 in 7.0 mi East 11.5 mph - N/A   Overcast
2:52 AM 33.8 °F 27.0 °F 32.0 °F 93% 29.72 in 7.0 mi East 8.1 mph - N/A   Overcast
3:12 AM 33.8 °F 27.0 °F 32.0 °F 93% 29.71 in 7.0 mi East 8.1 mph - N/A   Overcast
3:32 AM 33.8 °F 27.0 °F 32.0 °F 93% 29.69 in 10.0 mi East 8.1 mph - N/A   Light Drizzle
3:52 AM 35.6 °F 28.6 °F 30.2 °F 81% 29.68 in 10.0 mi East 9.2 mph - N/A   Light Drizzle
4:12 AM 35.6 °F 28.6 °F 30.2 °F 81% 29.68 in 7.0 mi East 9.2 mph - N/A Rain Light Rain
4:32 AM 33.8 °F 27.7 °F 32.0 °F 93% 29.67 in 2.5 mi East 6.9 mph - 0.04 in Rain Rain
4:52 AM 33.8 °F 27.0 °F 32.0 °F 93% 29.66 in 4.0 mi East 8.1 mph - 0.06 in Rain Light Rain
5:12 AM 33.8 °F 26.4 °F 33.8 °F 100% 29.65 in 3.0 mi East 9.2 mph - 0.01 in   Drizzle
5:32 AM 33.8 °F 27.0 °F 33.8 °F 100% 29.64 in 2.5 mi East 8.1 mph - 0.02 in Rain Light Rain
5:51 AM 33.8 °F 27.0 °F 33.8 °F 100% 29.63 in 2.5 mi East 8.1 mph - 0.03 in Rain Light Rain
6:12 AM 33.8 °F 27.0 °F 33.8 °F 100% 29.62 in 2.0 mi East 8.1 mph - 0.02 in Rain Light Rain
6:32 AM 33.8 °F 26.4 °F 33.8 °F 100% 29.62 in 2.0 mi East 9.2 mph - 0.05 in Rain Light Rain
6:52 AM 33.8 °F 27.0 °F 33.8 °F 100% 29.61 in 2.5 mi East 8.1 mph - 0.06 in Rain Light Rain
7:12 AM 33.8 °F 26.4 °F 33.8 °F 100% 29.60 in 2.0 mi East 9.2 mph - 0.01 in   Drizzle
7:32 AM 33.8 °F 27.7 °F 33.8 °F 100% 29.59 in 1.0 mi East 6.9 mph - 0.02 in Rain Rain
7:52 AM 32.0 °F 24.8 °F 32.0 °F 100% 29.59 in 0.5 mi East 8.1 mph - 0.05 in Rain Light Rain
8:12 AM 32.0 °F 24.8 °F 32.0 °F 100% 29.59 in 0.5 mi East 8.1 mph - 0.02 in Rain Light Rain
8:32 AM 32.0 °F 25.6 °F 32.0 °F 100% 29.59 in 0.5 mi East 6.9 mph - 0.03 in   Drizzle
8:52 AM 32.0 °F 25.6 °F 32.0 °F 100% 29.58 in 0.8 mi East 6.9 mph - 0.03 in   Drizzle
9:12 AM 33.8 °F 27.0 °F 33.8 °F 100% 29.58 in 1.0 mi East 8.1 mph - 0.01 in Rain Light Rain
9:32 AM 33.8 °F 27.0 °F 33.8 °F 100% 29.57 in 1.0 mi East 8.1 mph - 0.02 in Rain Light Rain
9:52 AM 33.8 °F 26.4 °F 33.8 °F 100% 29.56 in 1.2 mi East 9.2 mph - 0.04 in Rain Light Rain
10:12 AM 33.8 °F 26.4 °F 33.8 °F 100% 29.56 in 1.5 mi East 9.2 mph - 0.01 in Rain Light Rain
10:32 AM 33.8 °F 27.7 °F 33.8 °F 100% 29.56 in 1.5 mi East 6.9 mph - 0.01 in Rain Rain
10:52 AM 33.8 °F 27.7 °F 33.8 °F 100% 29.55 in 1.8 mi East 6.9 mph - 0.02 in Rain Light Rain
11:11 AM 33.8 °F 28.6 °F 33.8 °F 100% 29.54 in 2.0 mi East 5.8 mph - N/A Rain Rain
11:32 AM 33.8 °F 29.6 °F 33.8 °F 100% 29.53 in 2.0 mi East 4.6 mph - N/A   Drizzle
11:52 AM 33.8 °F 30.8 °F 33.8 °F 100% 29.53 in 2.5 mi ENE 3.5 mph - N/A   Overcast
12:11 PM 33.8 °F 29.6 °F 33.8 °F 100% 29.52 in 2.0 mi East 4.6 mph - N/A   Overcast
12:32 PM 33.8 °F 28.6 °F 33.8 °F 100% 29.52 in 2.5 mi East 5.8 mph - N/A   Overcast
12:52 PM 33.8 °F 29.6 °F 33.8 °F 100% 29.51 in 4.0 mi ENE 4.6 mph - N/A   Overcast
1:11 PM 33.8 °F 30.8 °F 33.8 °F 100% 29.50 in 1.8 mi ENE 3.5 mph - N/A   Overcast
1:32 PM 33.8 °F 30.8 °F 33.8 °F 100% 29.50 in 0.5 mi East 3.5 mph - N/A Fog Fog
1:52 PM 32.0 °F 28.7 °F 32.0 °F 100% 29.50 in 0.2 mi East 3.5 mph - N/A Fog Fog
2:11 PM 33.8 °F 30.8 °F 33.8 °F 100% 29.49 in 0.2 mi ENE 3.5 mph - N/A Fog Fog
2:32 PM 33.8 °F 30.8 °F 33.8 °F 100% 29.49 in 0.2 mi East 3.5 mph - N/A Fog Fog
2:52 PM 33.8 °F 30.8 °F 33.8 °F 100% 29.49 in 0.2 mi East 3.5 mph - N/A Fog Fog
3:11 PM 33.8 °F 30.8 °F 33.8 °F 100% 29.49 in 0.2 mi East 3.5 mph - N/A Fog Fog
3:32 PM 32.0 °F - 32.0 °F 100% 29.50 in 0.2 mi Calm Calm - N/A Fog Fog
3:52 PM 33.8 °F - 33.8 °F 100% 29.50 in 0.2 mi Calm Calm - N/A Fog Fog
4:11 PM 33.8 °F - 33.8 °F 100% 29.50 in 0.2 mi Calm Calm - N/A Fog Fog
4:32 PM 33.8 °F - 33.8 °F 100% 29.50 in 0.2 mi Calm Calm - N/A Fog Fog
4:52 PM 33.8 °F - 33.8 °F 100% 29.51 in 0.2 mi Calm Calm - N/A Fog Fog
5:12 PM 33.8 °F - 33.8 °F 100% 29.51 in 0.2 mi Calm Calm - N/A Fog Fog
5:32 PM 32.0 °F - 32.0 °F 100% 29.51 in 0.2 mi Calm Calm - N/A   Drizzle
5:52 PM 32.0 °F - 32.0 °F 100% 29.51 in 0.5 mi Calm Calm - N/A Rain Light Rain
6:12 PM 33.8 °F - 33.8 °F 100% 29.51 in 0.5 mi Calm Calm - N/A Rain Rain
6:32 PM 33.8 °F - 33.8 °F 100% 29.51 in 0.5 mi Calm Calm - N/A   Drizzle
6:51 PM 32.0 °F - 32.0 °F 100% 29.52 in 0.5 mi Calm Calm - N/A   Drizzle
7:12 PM 33.8 °F 30.8 °F 33.8 °F 100% 29.52 in 0.8 mi West 3.5 mph - N/A   Mist
7:32 PM 33.8 °F 30.8 °F 33.8 °F 100% 29.52 in 1.0 mi West 3.5 mph - N/A   Light Drizzle
7:51 PM 33.8 °F 30.8 °F 33.8 °F 100% 29.52 in 1.8 mi West 3.5 mph - N/A   Light Drizzle
8:12 PM 33.8 °F 29.6 °F 33.8 °F 100% 29.52 in 1.5 mi WNW 4.6 mph - N/A   Light Drizzle
8:32 PM 33.8 °F 28.6 °F 33.8 °F 100% 29.52 in 1.0 mi West 5.8 mph - N/A   Light Drizzle
8:51 PM 33.8 °F 28.6 °F 33.8 °F 100% 29.53 in 1.0 mi West 5.8 mph - N/A   Light Drizzle
9:12 PM 33.8 °F 27.0 °F 33.8 °F 100% 29.53 in 1.2 mi WNW 8.1 mph - N/A   Light Drizzle
9:31 PM 33.8 °F 27.7 °F 33.8 °F 100% 29.53 in 1.5 mi West 6.9 mph - 0.01 in Rain Rain
9:52 PM 32.0 °F 24.2 °F 32.0 °F 100% 29.53 in 3.0 mi West 9.2 mph - 0.01 in Rain Light Rain
10:12 PM 32.0 °F 24.8 °F 32.0 °F 100% 29.53 in 4.0 mi West 8.1 mph - 0.01 in Rain Light Rain
10:31 PM 32.0 °F 25.6 °F 32.0 °F 100% 29.54 in 4.0 mi West 6.9 mph - 0.01 in   Overcast
10:52 PM 32.0 °F 24.8 °F 32.0 °F 100% 29.54 in 5.0 mi West 8.1 mph - 0.01 in   Overcast
11:12 PM 30.2 °F 21.9 °F 30.2 °F 100% 29.54 in 5.0 mi WNW 9.2 mph - N/A Snow Light Snow
11:31 PM 30.2 °F 21.9 °F 30.2 °F 100% 29.54 in 4.0 mi WNW 9.2 mph - N/A Snow Light Snow
11:52 PM 30.2 °F 21.9 °F 30.2 °F 100% 29.54 in 4.0 mi WNW 9.2 mph - N/A Snow Light Snow